Voltar ao catálogo

COSMOS 1039

AtivoNavegaçãoLEO
NORAD 11048·PAYLOAD·🇷🇺 Russia

Lançado Oct 4, 1978 de Plesetsk Cosmodrome

Loading…

Próximas Passagens (próximas 24 horas)

TLE

AtualizadoSource: Space-Track

Época: Sep 14, 2026, 06:48 UTC

1 11048U 78091F   26257.28341840 -.00000017  00000-0 -16502-4 0  9999
2 11048  74.0391  14.8808 0045752  73.7167 310.6056 12.38030274688567

Acompanhe COSMOS 1039 em tempo real com AllMySat

Download on the App Store